Wind_Speed
29 30 29 30 31 32 33 33 32 32 32 32 32 32 32 32 31 32 32 32 31 30 31 32 32 33 34 33 33 34 34 34 34 34 34 34 34 34 34 34 34 34 34
27 27 28 28 30 32 32 32 33 32 32 32 32 32 31 31 31 32 33 33 33 32 32 33 34 34 34 34 34 34 35 35 35 36 36 36 36 36 36 36 36 36 36
25 26 26 27 28 30 31 31 31 32 33 33 33 32 32 32 33 33 34 35 35 35 35 34 35 36 36 35 35 36 36 36 36 37 37 37 37 37 37 37 37 38 38
23 24 25 27 28 28 30 31 30 31 32 33 33 34 34 33 33 35 35 36 36 37 37 36 36 35 35 35 36 37 37 37 37 37 37 38 38 38 38 38 39 40 40
23 24 25 26 28 28 28 29 30 31 31 32 32 33 34 34 35 35 36 36 37 38 38 38 37 37 36 36 37 37 38 38 38 38 38 39 39 40 41 41 41 42 42
22 24 25 26 27 28 29 29 29 30 31 31 32 32 33 35 36 36 37 37 37 38 39 40 40 39 39 38 38 39 39 39 40 41 41 42 42 43 44 44 45 45 45
22 24 25 26 27 28 29 29 29 30 30 31 32 33 34 35 36 37 37 37 38 39 40 41 42 42 42 42 41 41 41 41 42 43 43 44 45 46 46 47 47 47 47
23 24 25 26 27 28 29 29 30 30 31 32 33 34 35 36 37 38 39 39 40 40 41 42 43 43 43 44 44 43 43 43 43 44 45 46 47 48 48 48 49 49 49
23 24 25 25 26 26 28 29 31 31 32 33 34 34 35 36 37 38 39 40 41 41 42 43 44 44 45 45 45 45 45 45 45 46 47 48 49 49 50 50 51 51 51
22 23 24 25 26 27 28 30 31 32 33 34 35 35 35 36 38 39 39 40 41 42 42 43 44 45 46 46 46 47 47 47 47 47 48 49 50 50 51 51 51 52 52
22 24 25 26 27 28 29 30 31 32 33 34 35 36 36 37 38 39 40 41 42 42 43 43 44 45 46 47 47 48 48 49 50 50 49 49 49 50 50 51 52 52 52
23 24 26 27 28 29 30 31 32 33 34 35 36 36 37 38 38 39 40 41 41 42 43 44 44 46 47 47 48 49 50 50 51 51 51 51 50 50 51 51 51 51 52
24 25 26 27 29 30 31 32 32 33 34 35 36 36 37 37 38 38 40 41 41 42 43 44 45 45 46 47 48 49 50 50 51 51 52 51 51 51 51 51 52 52 53
25 26 27 28 29 31 32 33 33 34 34 35 35 36 37 37 38 39 40 41 42 43 44 44 44 44 45 46 46 47 48 49 50 51 51 52 52 51 52 52 53 53 53
27 28 29 29 30 31 32 33 34 34 34 35 35 36 37 38 39 39 40 41 42 42 43 43 44 45 45 46 46 47 47 48 49 50 50 51 51 52 52 52 52 53 53
29 30 31 31 32 32 33 34 35 36 36 36 37 37 38 39 40 40 41 41 42 43 44 44 44 45 46 46 47 46 46 47 48 48 49 49 50 51 51 51 52 52 52
31 32 32 33 34 34 35 36 36 37 38 38 39 39 40 41 41 42 42 43 43 44 45 45 45 45 45 46 46 46 46 46 47 47 48 48 49 49 50 50 50 50 51
33 34 35 35 36 36 37 38 38 38 39 39 40 40 41 42 43 44 44 44 44 44 44 44 45 45 46 46 47 47 47 47 47 48 48 48 48 49 49 49 49 50 50
34 35 36 37 38 38 39 39 40 40 40 41 41 42 42 43 44 44 44 44 44 44 44 44 44 45 45 46 47 47 47 47 48 47 48 48 49 49 49 48 49 49 49
36 37 38 39 39 39 40 40 40 40 41 41 42 42 43 43 44 44 44 44 44 44 45 44 44 45 46 46 47 47 47 48 48 48 49 49 50 49 49 48 48 48 48
39 39 39 39 40 40 41 41 41 41 42 42 43 43 44 44 44 44 44 44 45 45 45 45 46 46 46 47 47 48 49 49 49 49 49 49 49 49 48 48 47 47 47
40 40 40 40 40 41 41 41 41 42 42 42 43 44 44 45 45 45 45 45 46 46 46 46 46 47 47 48 48 49 49 50 49 49 49 49 49 48 48 47 46 46 46
41 41 41 41 41 41 41 41 41 42 42 43 43 44 45 45 46 46 46 46 46 47 47 47 47 47 48 49 49 49 49 50 49 49 48 48 48 47 47 46 46 46 46
42 42 42 42 42 42 42 42 42 43 43 43 44 44 45 45 46 46 46 47 47 47 47 47 48 48 48 49 49 49 49 49 48 47 46 46 46 46 45 45 45 45 44
42 43 43 42 42 42 42 43 43 43 43 44 45 45 45 46 46 46 47 47 47 48 48 48 48 49 49 49 49 49 49 48 47 46 45 45 45 44 44 44 44 43 42
43 43 43 43 43 43 43 44 44 44 45 45 45 46 46 46 47 47 47 47 47 48 48 49 49 49 49 49 49 48 48 47 46 45 44 43 43 43 42 42 41 41 40
Wind_Direction
211 214 217 220 224 227 229 231 233 236 238 239 242 245 248 250 252 255 256 257 261 263 263 265 269 272 273 273 274 273 275 276 276 277 278 278 278 279 280 281 281 282 282
213 217 220 223 226 228 231 234 235 238 241 243 244 245 246 250 254 255 256 259 263 266 268 269 271 272 273 273 273 274 274 275 276 278 278 278 279 279 280 280 281 281 282
219 221 224 228 231 231 233 237 239 241 245 247 248 247 248 252 255 258 261 264 266 268 269 272 273 274 273 272 273 274 276 277 277 278 279 279 278 279 280 280 281 281 282
223 226 230 234 235 237 238 240 243 244 246 249 250 253 255 258 260 263 265 266 268 270 271 272 274 274 273 273 274 275 275 277 277 278 278 279 279 279 279 280 281 281 282
229 232 234 238 240 243 246 248 248 250 252 254 256 259 260 260 262 264 267 269 270 270 272 273 274 274 274 274 275 275 275 275 276 277 277 279 279 279 279 280 280 281 281
232 236 239 241 243 247 249 251 253 254 256 258 260 262 262 263 265 267 269 270 271 271 272 273 274 275 275 276 276 275 274 275 276 277 277 278 279 280 280 280 280 280 281
239 240 242 245 247 249 251 253 255 257 258 260 262 264 265 265 267 268 270 272 273 273 274 274 275 275 276 277 276 277 276 277 277 278 278 279 279 279 279 280 280 280 281
244 246 247 248 249 251 253 255 257 259 259 261 264 265 267 268 269 269 271 272 274 275 276 275 275 276 276 277 277 277 277 277 277 278 278 279 280 279 280 280 280 280 281
246 249 251 252 251 253 255 257 259 261 262 264 266 267 268 269 270 271 272 273 275 275 276 276 276 276 276 276 276 276 277 277 278 278 279 280 280 280 280 281 281 281 281
249 252 254 255 256 256 258 259 261 263 264 265 266 268 269 271 272 272 273 274 274 275 276 277 276 276 276 277 277 277 277 278 279 280 280 281 281 281 281 281 282 282 283
252 255 256 257 258 260 261 262 263 264 265 266 267 269 271 272 273 274 275 275 276 276 277 278 278 277 277 277 277 277 278 280 281 281 281 282 281 281 282 282 283 283 283
256 257 259 260 262 263 264 265 266 267 268 269 270 271 272 274 275 275 277 277 278 278 278 278 279 279 279 279 279 279 279 280 281 282 282 283 283 283 283 283 283 283 284
259 260 263 264 266 266 267 267 268 269 270 271 272 272 274 275 276 277 277 278 279 279 279 279 280 281 281 281 281 282 282 282 283 283 284 284 284 283 284 283 283 284 284
263 264 266 268 268 268 268 269 269 270 271 272 273 274 275 276 277 278 278 279 279 280 280 280 281 282 282 283 283 283 284 284 284 284 285 285 284 284 284 284 284 284 284
266 268 269 270 269 269 269 269 270 271 272 273 274 275 276 277 278 279 279 279 280 281 281 282 282 282 283 283 284 284 285 285 285 285 285 285 285 285 285 285 285 285 285
270 270 271 271 271 271 270 270 271 272 273 274 275 276 277 278 279 279 280 281 281 282 282 283 283 283 283 284 284 284 285 285 286 286 286 286 286 286 286 286 286 286 286
272 272 272 273 273 273 272 271 272 273 274 274 275 276 277 279 279 280 281 282 282 282 283 284 284 284 284 284 284 284 285 286 286 287 287 287 287 287 287 287 287 286 286
274 273 274 274 274 274 274 273 273 274 274 275 275 276 277 279 280 281 282 282 283 284 284 284 283 283 284 284 285 284 285 285 286 287 287 287 287 287 288 287 287 286 286
275 275 275 275 275 275 275 274 274 275 275 275 276 277 278 279 281 281 282 283 283 284 284 284 284 284 285 285 286 285 285 286 286 286 286 287 287 287 288 287 287 287 286
275 276 276 276 276 275 276 276 276 276 276 276 277 278 279 280 281 282 283 283 284 284 285 285 285 285 286 286 287 287 286 287 286 286 286 287 287 286 286 286 286 286 286
276 276 276 277 277 277 277 277 276 277 277 278 278 278 279 281 282 282 283 284 285 285 285 285 285 286 286 287 287 287 287 288 287 287 286 286 286 287 286 286 286 286 285
277 276 277 277 277 277 277 277 277 277 277 278 279 280 280 281 282 283 284 284 285 285 285 285 285 286 287 287 288 288 288 288 288 287 287 287 286 286 286 286 286 285 285
277 277 277 277 277 276 277 277 277 277 278 279 279 280 280 281 283 283 284 285 285 285 285 285 285 286 287 288 288 288 288 288 288 288 288 287 287 287 287 286 285 284 284
278 278 278 278 278 277 277 277 278 278 278 279 280 281 281 282 283 284 285 285 285 285 285 285 285 286 287 288 289 288 288 288 288 288 287 287 287 287 287 286 285 284 283
278 278 278 278 278 277 276 276 277 277 278 279 280 281 282 283 283 284 285 285 285 286 286 286 287 287 288 288 288 288 288 287 287 287 287 287 288 287 287 286 286 285 284
278 278 278 278 277 277 276 276 276 277 278 280 281 281 282 283 284 284 285 286 286 286 286 287 288 288 289 288 288 288 287 286 286 286 286 287 287 287 287 287 286 285 284
Height
5751 5755 5758 5762 5765 5768 5771 5773 5776 5779 5781 5783 5784 5786 5787 5788 5788 5789 5789 5790 5791 5791 5791 5792 5791 5791 5791 5790 5789 5788 5787 5786 5785 5784 5783 5781 5780 5778 5777 5775 5774 5772 5770
5748 5752 5755 5758 5761 5763 5766 5769 5771 5774 5776 5777 5778 5779 5780 5781 5782 5782 5783 5783 5784 5784 5784 5784 5784 5784 5783 5782 5781 5780 5779 5778 5777 5776 5774 5773 5773 5770 5769 5767 5766 5764 5762
5745 5748 5751 5754 5756 5759 5761 5764 5766 5768 5770 5771 5772 5772 5774 5775 5775 5776 5776 5776 5777 5777 5777 5776 5776 5775 5775 5774 5773 5772 5771 5770 5769 5767 5766 5765 5764 5762 5761 5759 5757 5755 5754
5742 5744 5747 5749 5752 5754 5756 5759 5760 5762 5763 5764 5765 5766 5767 5768 5768 5769 5769 5769 5769 5769 5769 5769 5768 5767 5767 5766 5765 5764 5763 5762 5761 5759 5757 5756 5754 5753 5752 5751 5748 5746 5744
5739 5741 5744 5746 5748 5749 5751 5753 5755 5756 5757 5758 5759 5760 5760 5761 5761 5761 5761 5761 5761 5761 5761 5760 5760 5759 5758 5757 5757 5756 5754 5753 5752 5750 5749 5747 5745 5743 5742 5741 5739 5737 5735
5736 5738 5740 5741 5743 5744 5746 5747 5749 5750 5751 5752 5753 5753 5754 5754 5754 5754 5753 5753 5753 5753 5752 5752 5751 5750 5750 5749 5748 5747 5745 5744 5742 5741 5739 5737 5736 5734 5732 5730 5728 5726 5724
5732 5734 5735 5737 5738 5739 5740 5741 5743 5744 5745 5745 5746 5746 5746 5746 5746 5746 5745 5745 5745 5744 5744 5743 5742 5741 5740 5739 5738 5737 5735 5734 5732 5731 5729 5727 5725 5723 5721 5719 5717 5715 5713
5728 5729 5730 5732 5733 5734 5735 5736 5736 5737 5738 5738 5738 5738 5738 5738 5737 5737 5737 5736 5735 5735 5734 5733 5732 5731 5730 5729 5728 5726 5725 5723 5722 5720 5718 5716 5714 5712 5710 5707 5705 5703 5701
5723 5724 5725 5726 5727 5728 5728 5729 5729 5730 5730 5730 5730 5730 5730 5729 5729 5728 5728 5727 5726 5725 5724 5723 5722 5721 5720 5718 5717 5716 5714 5713 5711 5709 5707 5705 5702 5700 5698 5695 5693 5691 5689
5718 5719 5720 5720 5721 5721 5721 5722 5722 5722 5722 5722 5722 5721 5721 5720 5719 5719 5718 5717 5716 5715 5714 5712 5711 5710 5709 5708 5706 5704 5703 5701 5699 5697 5695 5693 5690 5688 5685 5683 5680 5677 5675
5713 5714 5714 5714 5714 5714 5714 5714 5714 5714 5713 5713 5713 5712 5712 5711 5710 5709 5708 5707 5706 5705 5703 5702 5700 5699 5698 5696 5694 5693 5691 5689 5687 5685 5683 5680 5677 5675 5672 5670 5667 5664 5661
5707 5707 5707 5707 5707 5707 5707 5706 5706 5705 5705 5704 5704 5703 5702 5701 5701 5699 5698 5697 5695 5694 5692 5691 5689 5688 5686 5684 5682 5680 5678 5676 5674 5672 5670 5667 5664 5662 5659 5656 5653 5650 5648
5700 5700 5700 5699 5699 5699 5698 5698 5697 5697 5696 5695 5694 5693 5693 5692 5691 5689 5688 5686 5685 5683 5682 5680 5678 5676 5674 5672 5670 5668 5666 5663 5661 5659 5656 5653 5651 5648 5645 5642 5639 5636 5633
5693 5693 5692 5691 5691 5690 5690 5689 5688 5688 5687 5686 5685 5684 5683 5682 5680 5679 5677 5676 5674 5672 5670 5668 5666 5664 5662 5660 5657 5655 5653 5650 5648 5645 5643 5640 5637 5634 5631 5628 5625 5622 5619
5686 5685 5684 5683 5682 5681 5680 5680 5679 5678 5677 5676 5675 5674 5673 5671 5670 5668 5667 5665 5663 5661 5659 5657 5654 5652 5650 5647 5645 5642 5640 5637 5634 5632 5629 5626 5623 5620 5617 5614 5611 5607 5604
5677 5677 5676 5675 5673 5672 5671 5670 5669 5668 5667 5666 5665 5664 5662 5661 5659 5657 5655 5653 5651 5649 5647 5644 5642 5640 5637 5635 5632 5630 5627 5624 5621 5618 5615 5612 5609 5606 5603 5600 5597 5594 5590
5669 5667 5666 5665 5664 5663 5661 5660 5659 5658 5656 5655 5654 5653 5651 5649 5648 5646 5644 5642 5639 5637 5635 5632 5630 5627 5624 5622 5619 5616 5614 5611 5608 5605 5602 5599 5596 5592 5589 5586 5583 5580 5577
5659 5658 5656 5655 5654 5652 5651 5649 5648 5647 5645 5644 5643 5641 5640 5638 5636 5634 5632 5629 5627 5625 5622 5620 5617 5615 5612 5609 5606 5603 5601 5598 5595 5592 5588 5586 5582 5579 5576 5573 5569 5566 5563
5649 5647 5646 5644 5643 5641 5639 5638 5636 5635 5634 5632 5631 5629 5628 5626 5624 5622 5620 5617 5615 5612 5610 5607 5605 5602 5599 5596 5593 5590 5587 5585 5581 5578 5575 5572 5569 5566 5562 5559 5556 5552 5549
5638 5636 5634 5633 5631 5629 5627 5626 5624 5623 5622 5620 5619 5617 5615 5614 5612 5609 5607 5605 5602 5600 5597 5595 5592 5589 5586 5583 5580 5577 5574 5571 5568 5565 5562 5558 5555 5551 5548 5545 5542 5539 5536
5626 5624 5623 5621 5619 5617 5615 5614 5612 5611 5609 5608 5606 5605 5603 5601 5599 5597 5594 5592 5589 5587 5584 5582 5579 5576 5573 5570 5567 5563 5560 5557 5554 5551 5548 5544 5541 5537 5534 5532 5529 5526 5522
5614 5612 5611 5609 5607 5605 5603 5601 5600 5598 5597 5595 5594 5592 5590 5588 5586 5584 5581 5579 5576 5574 5571 5568 5566 5563 5560 5557 5553 5550 5546 5543 5540 5537 5533 5530 5527 5523 5521 5518 5515 5512 5509
5602 5600 5598 5596 5594 5592 5590 5589 5587 5586 5584 5582 5580 5579 5577 5575 5572 5570 5568 5565 5562 5560 5557 5555 5552 5549 5546 5543 5539 5536 5532 5528 5525 5522 5519 5516 5513 5510 5507 5504 5501 5499 5496
5589 5587 5585 5584 5582 5580 5578 5576 5574 5573 5571 5569 5567 5565 5563 5561 5559 5556 5554 5551 5549 5546 5543 5541 5538 5535 5532 5528 5525 5521 5518 5514 5511 5508 5505 5502 5499 5497 5494 5491 5488 5485 5483
5576 5574 5572 5570 5568 5567 5565 5563 5561 5559 5558 5556 5554 5552 5549 5547 5545 5542 5540 5537 5535 5531 5529 5526 5523 5521 5518 5514 5510 5507 5504 5500 5497 5495 5492 5489 5487 5484 5481 5478 5475 5473 5470
5562 5560 5558 5556 5554 5553 5551 5549 5547 5546 5544 5542 5540 5538 5535 5533 5531 5528 5526 5523 5520 5517 5514 5511 5508 5505 5502 5499 5496 5492 5489 5486 5484 5481 5479 5476 5474 5471 5468 5466 5463 5460 5458